Regional Weather Roundup
Issued by NWS

Home | Current Version | Previous Version | Text Only | Print | Product List | Glossary On
Versions: 1 2 3 4 5 6 7 8 9 10 11 12 13 14 15 16 17 18 19 20 21 22 23 24 25 26 27 28 29 30 31 32 33 34 35 36 37 38 39 40 41 42 43 44 45 46 47 48 49 50
617
ASUS44 KJAN 141510
RWRMS

MISSISSIPPI HOURLY WEATHER ROUNDUP
NATIONAL WEATHER SERVICE JACKSON MS
900 AM CST SUN FEB 14 2016

NOTE: "FAIR: INDICATES FEW OR NO CLOUDS BELOW 12,000 FEET WITH NO
SIGNIFICANT WEATHER AND/OR OBSTRUCTIONS TO VISIBILITY.

MSZ001>002-007>008-010>013-018>021-025>028-034>036-141600-
NORTHWEST MISSISSIPPI

CITY           SKY/WX    TMP DP  RH WIND       PRES   REMARKS
CLEVELAND      CLOUDY    42  21  44 S14       30.18F
GREENWOOD      CLOUDY    42  15  33 S10       30.21S
GREENVILLE     CLOUDY    43  20  39 SE10      30.19S
OLIVE BRANCH   CLOUDY    34  12  40 SE8       30.17F WCI  27
TUNICA         CLOUDY    36  14  41 SE14      30.20R WCI  27
$$

MSZ003>006-009-014>017-022>024-029>033-037>039-141600-
NORTHEAST MISSISSIPPI

CITY           SKY/WX    TMP DP  RH WIND       PRES   REMARKS
COLUMBUS AFB   NOT AVBL
CORINTH        CLOUDY    32  12  43 SE5G13    30.24S WCI  27
GOLDN TRIANGLE CLOUDY    36  10  35 S14       30.26S WCI  27
STARKVILLE     CLOUDY    36  16  44 S12       30.26F WCI  27
TUPELO         CLOUDY    36  10  34 SE12      30.25S WCI  28
$$

MSZ040-058-141600-
CENTRAL MISSISSIPPI

CITY           SKY/WX    TMP DP  RH WIND       PRES   REMARKS
JACKSON INTL   CLOUDY    44  18  35 S13G23    30.22F
JACKSON HAWKNS CLOUDY    43  18  36 SE14      30.22F
MERIDIAN KEY   CLOUDY    42  14  32 SE9       30.27F
MERIDIAN NAS   CLOUDY    38  15  39 SE9       30.29F WCI  31
VICKSBURG      CLOUDY    46  23  40 SE12      30.20F
$$

MSZ059>079-141600-
SOUTH MISSISSIPPI

CITY           SKY/WX    TMP DP  RH WIND       PRES   REMARKS
BROOKHAVEN     PTSUNNY   55  36  47 SE6       30.24F
HATTIESBURG    SUNNY     42  24  49 E6        30.27F
MCCOMB         SUNNY     48  33  56 SE8       30.23S
NATCHEZ        CLOUDY    48  30  49 SE12G18   30.20S
PINE BELT      SUNNY     43  19  39 E9        30.27S
$$

MSZ080>082-141600-
COASTAL MISSISSIPPI

CITY           SKY/WX    TMP DP  RH WIND       PRES   REMARKS
BAY ST LOUIS   SUNNY     52  36  54 E7        30.25S
BILOXI         NOT AVBL
PASCAGOULA     SUNNY     52  37  56 E8        30.26F
GULFPORT       SUNNY     52  37  56 E8        30.25S
$$




USA.gov is the U.S. government's official web portal to all federal, state and local government web resources and services.